User: anonymous   Login
Location: Unspecified
(0.0000°N, 0.0000°E)
Time: 09:00:53
(UTC+02:00)
Language:

ARIANE 5 R/B - Orbit

View from above orbital plane
View from above orbital plane
View from above satellite
View from above satellite

Ground track
Ground track

The orbit data is extracted from the following two-line orbital elements,

1 27510U 02040C   14296.38805895 -.00000053  00000-0  00000+0 0   875
2 27510 004.9950 226.1239 7158903 313.2498 006.0810 02.27182012100902
Epoch (UTC): 23 October 2014 09:18:48
Eccentricity: 0.7158903
inclination: 4.9950°
perigee height: 566 km
apogee height: 35563 km
right ascension of ascending node: 226.1239°
argument of perigee: 313.2498°
revolutions per day: 2.27182012
mean anomaly at epoch: 6.0810°
orbit number at epoch: 10090

The dashed part of the orbit path shows where the satellite is in the earth's shadow,  

DLR